Time,TemperatureF,DewpointF,PressureIn,WindDirection,WindDirectionDegrees,WindSpeedMPH,WindSpeedGustMPH,Humidity,HourlyPrecipIn,Conditions,Clouds,dailyrainin,SolarRadiationWatts/m^2,SoftwareType,DateUTC
2013-10-23 00:06:00,68.7,64.7,29.92,WSW,250,9.0,11.0,87,0.00,,,0.00,0,Wunderground v.1.15,2013-10-22 22:06:00,
2013-10-23 00:12:00,69.5,65.5,29.92,WSW,252,11.0,13.0,87,0.00,,,0.00,0,Wunderground v.1.15,2013-10-22 22:12:00,
2013-10-23 00:18:00,70.1,65.7,29.93,WSW,248,12.0,13.0,86,0.00,,,0.00,0,Wunderground v.1.15,2013-10-22 22:18:00,
2013-10-23 00:26:00,70.2,65.8,29.93,WSW,244,10.0,13.0,86,0.00,,,0.00,0,Wunderground v.1.15,2013-10-22 22:26:00,
2013-10-23 00:32:00,70.2,65.5,29.92,WSW,249,9.0,11.0,85,0.00,,,0.00,0,Wunderground v.1.15,2013-10-22 22:32:00,
2013-10-23 00:38:00,70.2,65.5,29.92,WSW,250,7.0,11.0,85,0.00,,,0.00,0,Wunderground v.1.15,2013-10-22 22:38:00,
2013-10-23 00:46:00,70.0,65.3,29.93,WSW,245,8.0,11.0,85,0.00,,,0.00,0,Wunderground v.1.15,2013-10-22 22:46:00,
2013-10-23 00:52:00,70.0,65.3,29.94,WSW,253,9.0,10.0,85,0.00,,,0.00,0,Wunderground v.1.15,2013-10-22 22:52:00,
2013-10-23 00:58:00,70.0,65.3,29.93,WSW,246,9.0,10.0,85,0.00,,,0.00,0,Wunderground v.1.15,2013-10-22 22:58:00,
2013-10-23 01:06:00,70.1,65.4,29.93,WSW,244,8.0,11.0,85,0.00,,,0.00,0,Wunderground v.1.15,2013-10-22 23:06:00,
2013-10-23 01:12:00,70.2,65.5,29.94,WSW,246,9.0,10.0,85,0.00,,,0.00,0,Wunderground v.1.15,2013-10-22 23:12:00,
2013-10-23 01:18:00,70.3,65.6,29.94,WSW,248,9.0,10.0,85,0.00,,,0.00,0,Wunderground v.1.15,2013-10-22 23:18:00,
2013-10-23 01:24:00,70.3,65.6,29.94,WSW,250,9.0,10.0,85,0.00,,,0.00,0,Wunderground v.1.15,2013-10-22 23:24:00,
2013-10-23 01:30:00,70.5,65.4,29.94,WSW,251,9.0,11.0,84,0.00,,,0.00,0,Wunderground v.1.15,2013-10-22 23:30:00,
2013-10-23 01:36:00,70.6,65.5,29.94,WSW,246,11.0,12.0,84,0.00,,,0.00,0,Wunderground v.1.15,2013-10-22 23:36:00,
2013-10-23 01:42:00,70.7,65.6,29.94,WSW,253,11.0,11.0,84,0.00,,,0.00,0,Wunderground v.1.15,2013-10-22 23:42:00,
2013-10-23 01:48:00,70.8,65.7,29.94,WSW,237,11.0,13.0,84,0.00,,,0.00,0,Wunderground v.1.15,2013-10-22 23:48:00,
2013-10-23 01:56:00,70.7,65.3,29.93,WSW,246,11.0,11.0,83,0.00,,,0.00,0,Wunderground v.1.15,2013-10-22 23:56:00,
2013-10-23 02:02:00,70.7,65.3,29.93,WSW,247,10.0,10.0,83,0.00,,,0.00,0,Wunderground v.1.15,2013-10-23 00:02:00,
2013-10-23 02:08:00,70.7,65.3,29.92,WSW,253,9.0,10.0,83,0.00,,,0.00,0,Wunderground v.1.15,2013-10-23 00:08:00,
2013-10-23 02:16:00,70.6,65.2,29.92,WSW,248,8.0,10.0,83,0.00,,,0.00,0,Wunderground v.1.15,2013-10-23 00:16:00,
2013-10-23 02:22:00,70.6,65.2,29.92,WSW,246,9.0,9.0,83,0.00,,,0.00,0,Wunderground v.1.15,2013-10-23 00:22:00,
2013-10-23 02:28:00,70.6,65.2,29.92,WSW,246,8.0,9.0,83,0.00,,,0.00,0,Wunderground v.1.15,2013-10-23 00:28:00,
2013-10-23 02:36:00,70.3,64.9,29.92,WSW,246,8.0,8.0,83,0.00,,,0.00,0,Wunderground v.1.15,2013-10-23 00:36:00,
2013-10-23 02:42:00,70.2,64.8,29.91,WSW,246,6.0,7.0,83,0.00,,,0.00,0,Wunderground v.1.15,2013-10-23 00:42:00,
2013-10-23 02:48:00,70.1,65.0,29.92,WSW,246,5.0,7.0,84,0.00,,,0.00,0,Wunderground v.1.15,2013-10-23 00:48:00,
2013-10-23 02:56:00,70.2,65.1,29.92,WSW,248,6.0,7.0,84,0.00,,,0.00,0,Wunderground v.1.15,2013-10-23 00:56:00,
2013-10-23 03:02:00,70.3,64.9,29.91,WSW,249,6.0,6.0,83,0.00,,,0.00,0,Wunderground v.1.15,2013-10-23 01:02:00,
2013-10-23 03:08:00,70.3,64.9,29.91,WSW,248,6.0,7.0,83,0.00,,,0.00,0,Wunderground v.1.15,2013-10-23 01:08:00,
2013-10-23 03:16:00,70.2,64.8,29.90,WSW,252,6.0,8.0,83,0.00,,,0.00,0,Wunderground v.1.15,2013-10-23 01:16:00,
2013-10-23 03:22:00,70.2,64.8,29.90,WSW,253,7.0,7.0,83,0.00,,,0.00,0,Wunderground v.1.15,2013-10-23 01:22:00,
2013-10-23 03:28:00,70.3,64.5,29.89,WSW,252,5.0,7.0,82,0.00,,,0.00,0,Wunderground v.1.15,2013-10-23 01:28:00,
2013-10-23 03:36:00,70.3,64.5,29.89,WSW,252,2.0,4.0,82,0.00,,,0.00,0,Wunderground v.1.15,2013-10-23 01:36:00,
2013-10-23 03:42:00,70.1,64.3,29.89,WSW,252,3.0,3.0,82,0.00,,,0.00,0,Wunderground v.1.15,2013-10-23 01:42:00,
2013-10-23 03:48:00,69.9,64.2,29.90,WSW,252,4.0,5.0,82,0.00,,,0.00,0,Wunderground v.1.15,2013-10-23 01:48:00,
2013-10-23 03:54:00,69.7,64.0,29.90,WSW,252,4.0,4.0,82,0.00,,,0.00,0,Wunderground v.1.15,2013-10-23 01:54:00,
2013-10-23 04:00:00,69.7,64.0,29.89,WSW,252,4.0,4.0,82,0.00,,,0.00,0,Wunderground v.1.15,2013-10-23 02:00:00,
2013-10-23 04:06:00,69.8,64.1,29.89,WSW,248,5.0,6.0,82,0.00,,,0.00,0,Wunderground v.1.15,2013-10-23 02:06:00,
2013-10-23 04:12:00,69.5,64.1,29.89,WSW,246,5.0,6.0,83,0.00,,,0.00,0,Wunderground v.1.15,2013-10-23 02:12:00,
2013-10-23 04:18:00,69.4,64.0,29.89,WSW,244,6.0,6.0,83,0.00,,,0.00,0,Wunderground v.1.15,2013-10-23 02:18:00,
2013-10-23 04:26:00,69.7,64.3,29.89,WSW,246,7.0,8.0,83,0.00,,,0.00,0,Wunderground v.1.15,2013-10-23 02:26:00,
2013-10-23 04:32:00,69.7,64.3,29.89,WSW,246,7.0,8.0,83,0.00,,,0.00,0,Wunderground v.1.15,2013-10-23 02:32:00,
2013-10-23 04:38:00,69.7,64.0,29.89,WSW,246,7.0,8.0,82,0.00,,,0.00,0,Wunderground v.1.15,2013-10-23 02:38:00,
2013-10-23 04:46:00,69.7,64.3,29.89,WSW,242,7.0,7.0,83,0.00,,,0.00,0,Wunderground v.1.15,2013-10-23 02:46:00,
2013-10-23 04:52:00,69.7,64.3,29.89,WSW,244,7.0,8.0,83,0.00,,,0.00,0,Wunderground v.1.15,2013-10-23 02:52:00,
2013-10-23 04:58:00,69.7,64.3,29.89,WSW,242,8.0,8.0,83,0.00,,,0.00,0,Wunderground v.1.15,2013-10-23 02:58:00,
2013-10-23 05:06:00,70.0,64.2,29.89,WSW,248,7.0,9.0,82,0.00,,,0.00,0,Wunderground v.1.15,2013-10-23 03:06:00,
2013-10-23 05:12:00,70.1,64.3,29.88,WSW,241,7.0,8.0,82,0.00,,,0.00,0,Wunderground v.1.15,2013-10-23 03:12:00,
2013-10-23 05:18:00,70.0,64.2,29.89,WSW,252,8.0,11.0,82,0.00,,,0.00,0,Wunderground v.1.15,2013-10-23 03:18:00,
2013-10-23 05:26:00,70.3,64.5,29.89,West,259,12.0,15.0,82,0.00,,,0.00,0,Wunderground v.1.15,2013-10-23 03:26:00,
2013-10-23 05:32:00,70.4,63.9,29.89,SW,235,13.0,13.0,80,0.00,,,0.00,0,Wunderground v.1.15,2013-10-23 03:32:00,
2013-10-23 05:38:00,70.6,63.8,29.89,WSW,247,12.0,13.0,79,0.00,,,0.00,0,Wunderground v.1.15,2013-10-23 03:38:00,
2013-10-23 05:46:00,70.8,63.6,29.89,WSW,254,10.0,11.0,78,0.00,,,0.00,0,Wunderground v.1.15,2013-10-23 03:46:00,
2013-10-23 05:52:00,71.0,64.2,29.90,WSW,252,9.0,9.0,79,0.00,,,0.00,0,Wunderground v.1.15,2013-10-23 03:52:00,
2013-10-23 05:58:00,70.9,64.1,29.90,WSW,248,8.0,11.0,79,0.00,,,0.00,0,Wunderground v.1.15,2013-10-23 03:58:00,
2013-10-23 06:02:00,70.9,63.7,29.90,WSW,252,7.0,8.0,78,0.00,,,0.00,0,Wunderground v.1.15,2013-10-23 04:02:00,
2013-10-23 06:06:00,71.0,63.8,29.90,WSW,241,8.0,12.0,78,0.00,,,0.00,0,Wunderground v.1.15,2013-10-23 04:06:00,
2013-10-23 06:08:00,71.0,64.2,29.90,WSW,244,9.0,12.0,79,0.00,,,0.00,0,Wunderground v.1.15,2013-10-23 04:08:00,
2013-10-23 06:10:00,71.1,63.9,29.89,WSW,250,9.0,12.0,78,0.00,,,0.00,0,Wunderground v.1.15,2013-10-23 04:10:00,
2013-10-23 06:12:00,71.2,64.0,29.89,WSW,242,10.0,12.0,78,0.00,,,0.00,0,Wunderground v.1.15,2013-10-23 04:12:00,
2013-10-23 06:18:00,71.2,64.0,29.89,WSW,244,10.0,12.0,78,0.00,,,0.00,0,Wunderground v.1.15,2013-10-23 04:18:00,
2013-10-23 06:22:00,71.1,63.9,29.89,WSW,242,10.0,10.0,78,0.00,,,0.00,0,Wunderground v.1.15,2013-10-23 04:22:00,
2013-10-23 06:28:00,71.0,64.2,29.89,WSW,252,9.0,10.0,79,0.00,,,0.00,0,Wunderground v.1.15,2013-10-23 04:28:00,
2013-10-23 06:34:00,70.9,64.1,29.89,WSW,245,8.0,10.0,79,0.00,,,0.00,0,Wunderground v.1.15,2013-10-23 04:34:00,
2013-10-23 06:40:00,71.0,64.5,29.89,WSW,254,10.0,13.0,80,0.00,,,0.00,0,Wunderground v.1.15,2013-10-23 04:40:00,
2013-10-23 06:46:00,70.9,64.4,29.89,WSW,250,10.0,13.0,80,0.00,,,0.00,0,Wunderground v.1.15,2013-10-23 04:46:00,
2013-10-23 06:52:00,70.8,64.3,29.89,WSW,246,10.0,11.0,80,0.00,,,0.00,0,Wunderground v.1.15,2013-10-23 04:52:00,
2013-10-23 06:58:00,70.8,64.3,29.90,WSW,252,9.0,11.0,80,0.00,,,0.00,0,Wunderground v.1.15,2013-10-23 04:58:00,
2013-10-23 07:06:00,70.8,64.0,29.90,West,263,7.0,9.0,79,0.00,,,0.00,0,Wunderground v.1.15,2013-10-23 05:06:00,
2013-10-23 07:12:00,71.0,64.2,29.90,WSW,245,7.0,7.0,79,0.00,,,0.00,0,Wunderground v.1.15,2013-10-23 05:12:00,
2013-10-23 07:18:00,71.0,64.2,29.90,WSW,245,7.0,8.0,79,0.00,,,0.00,0,Wunderground v.1.15,2013-10-23 05:18:00,
2013-10-23 07:24:00,71.0,64.2,29.90,WSW,253,6.0,6.0,79,0.00,,,0.00,0,Wunderground v.1.15,2013-10-23 05:24:00,
2013-10-23 07:30:00,71.1,63.9,29.90,WSW,244,7.0,7.0,78,0.00,,,0.00,0,Wunderground v.1.15,2013-10-23 05:30:00,
2013-10-23 07:36:00,71.2,64.0,29.90,WSW,248,7.0,8.0,78,0.00,,,0.00,0,Wunderground v.1.15,2013-10-23 05:36:00,
2013-10-23 07:42:00,71.3,63.7,29.90,WSW,246,7.0,9.0,77,0.00,,,0.00,0,Wunderground v.1.15,2013-10-23 05:42:00,
2013-10-23 07:48:00,71.3,63.7,29.90,WSW,250,6.0,9.0,77,0.00,,,0.00,0,Wunderground v.1.15,2013-10-23 05:48:00,
2013-10-23 07:56:00,71.2,63.6,29.90,West,259,4.0,6.0,77,0.00,,,0.00,0,Wunderground v.1.15,2013-10-23 05:56:00,
2013-10-23 08:02:00,71.2,63.6,29.90,West,259,2.0,3.0,77,0.00,,,0.00,0,Wunderground v.1.15,2013-10-23 06:02:00,
2013-10-23 08:08:00,71.0,63.4,29.90,West,259,0.0,3.0,77,0.00,,,0.00,0,Wunderground v.1.15,2013-10-23 06:08:00,
2013-10-23 08:16:00,70.9,63.7,29.90,West,259,0.0,0.0,78,0.00,,,0.00,0,Wunderground v.1.15,2013-10-23 06:16:00,
2013-10-23 08:22:00,70.8,63.6,29.90,West,259,0.0,0.0,78,0.00,,,0.00,0,Wunderground v.1.15,2013-10-23 06:22:00,
2013-10-23 08:28:00,70.6,63.8,29.90,West,259,0.0,0.0,79,0.00,,,0.00,5,Wunderground v.1.15,2013-10-23 06:28:00,
2013-10-23 08:34:00,70.6,63.8,29.90,West,259,1.0,5.0,79,0.00,,,0.00,11,Wunderground v.1.15,2013-10-23 06:34:00,
2013-10-23 08:40:00,70.8,64.0,29.91,WSW,258,4.0,4.0,79,0.00,,,0.00,12,Wunderground v.1.15,2013-10-23 06:40:00,
2013-10-23 08:46:00,70.8,64.0,29.91,WSW,258,3.0,4.0,79,0.00,,,0.00,12,Wunderground v.1.15,2013-10-23 06:46:00,
2013-10-23 08:52:00,70.7,63.9,29.92,WSW,258,2.0,2.0,79,0.00,,,0.00,14,Wunderground v.1.15,2013-10-23 06:52:00,
2013-10-23 08:58:00,70.6,64.1,29.92,WSW,257,3.0,6.0,80,0.00,,,0.00,18,Wunderground v.1.15,2013-10-23 06:58:00,
2013-10-23 09:04:00,70.7,64.2,29.92,West,264,4.0,4.0,80,0.00,,,0.00,19,Wunderground v.1.15,2013-10-23 07:04:00,
2013-10-23 09:10:00,70.7,64.6,29.92,WSW,253,3.0,9.0,81,0.00,,,0.00,21,Wunderground v.1.15,2013-10-23 07:10:00,
2013-10-23 09:16:00,70.8,65.0,29.92,WSW,254,5.0,9.0,82,0.00,,,0.00,25,Wunderground v.1.15,2013-10-23 07:16:00,
2013-10-23 09:22:00,70.9,65.1,29.93,West,261,5.0,5.0,82,0.00,,,0.00,25,Wunderground v.1.15,2013-10-23 07:22:00,
2013-10-23 09:28:00,70.8,65.0,29.93,West,276,5.0,5.0,82,0.00,,,0.00,26,Wunderground v.1.15,2013-10-23 07:28:00,
2013-10-23 09:36:00,70.7,64.9,29.93,West,275,4.0,5.0,82,0.00,,,0.00,21,Wunderground v.1.15,2013-10-23 07:36:00,
2013-10-23 09:42:00,70.7,64.9,29.93,West,275,3.0,5.0,82,0.00,,,0.00,23,Wunderground v.1.15,2013-10-23 07:42:00,
2013-10-23 09:48:00,70.8,65.0,29.94,West,271,4.0,6.0,82,0.00,,,0.00,35,Wunderground v.1.15,2013-10-23 07:48:00,
2013-10-23 09:56:00,70.9,65.1,29.94,West,269,4.0,5.0,82,0.00,,,0.00,49,Wunderground v.1.15,2013-10-23 07:56:00,
2013-10-23 10:02:00,71.0,65.2,29.94,West,260,5.0,5.0,82,0.00,,,0.00,49,Wunderground v.1.15,2013-10-23 08:02:00,
2013-10-23 10:08:00,71.0,65.2,29.94,West,260,5.0,5.0,82,0.00,,,0.00,58,Wunderground v.1.15,2013-10-23 08:08:00,
2013-10-23 10:16:00,71.1,65.3,29.94,WSW,250,5.0,5.0,82,0.00,,,0.00,63,Wunderground v.1.15,2013-10-23 08:16:00,
2013-10-23 10:22:00,71.2,65.4,29.95,WSW,257,4.0,5.0,82,0.00,,,0.00,58,Wunderground v.1.15,2013-10-23 08:22:00,
2013-10-23 10:28:00,71.2,65.4,29.95,WSW,256,4.0,5.0,82,0.00,,,0.00,67,Wunderground v.1.15,2013-10-23 08:28:00,
2013-10-23 10:36:00,71.3,65.5,29.95,WSW,257,2.0,3.0,82,0.00,,,0.00,76,Wunderground v.1.15,2013-10-23 08:36:00,
2013-10-23 10:42:00,71.4,65.6,29.95,WSW,257,1.0,4.0,82,0.00,,,0.00,86,Wunderground v.1.15,2013-10-23 08:42:00,
2013-10-23 10:48:00,71.5,65.7,29.95,WSW,257,1.0,4.0,82,0.00,,,0.00,90,Wunderground v.1.15,2013-10-23 08:48:00,
2013-10-23 10:56:00,71.5,65.4,29.95,WSW,257,0.0,5.0,81,0.00,,,0.00,98,Wunderground v.1.15,2013-10-23 08:56:00,
2013-10-23 11:02:00,71.7,65.6,29.95,WSW,257,2.0,2.0,81,0.00,,,0.00,95,Wunderground v.1.15,2013-10-23 09:02:00,
2013-10-23 11:08:00,71.8,65.7,29.95,WSW,257,2.0,2.0,81,0.00,,,0.00,90,Wunderground v.1.15,2013-10-23 09:08:00,
2013-10-23 11:14:00,71.8,65.7,29.96,WSW,257,3.0,7.0,81,0.00,,,0.00,83,Wunderground v.1.15,2013-10-23 09:14:00,
2013-10-23 11:20:00,71.9,65.8,29.96,WSW,256,4.0,4.0,81,0.00,,,0.00,70,Wunderground v.1.15,2013-10-23 09:20:00,
2013-10-23 11:26:00,71.9,65.8,29.96,WSW,257,4.0,6.0,81,0.00,,,0.00,62,Wunderground v.1.15,2013-10-23 09:26:00,
2013-10-23 11:32:00,72.0,65.8,29.96,WSW,254,4.0,7.0,81,0.00,,,0.00,62,Wunderground v.1.15,2013-10-23 09:32:00,
2013-10-23 11:38:00,72.0,65.8,29.96,West,259,6.0,9.0,81,0.00,,,0.00,74,Wunderground v.1.15,2013-10-23 09:38:00,
2013-10-23 11:46:00,72.2,65.7,29.96,NW,304,5.0,7.0,80,0.00,,,0.00,141,Wunderground v.1.15,2013-10-23 09:46:00,
2013-10-23 11:52:00,72.4,65.9,29.97,NW,305,2.0,4.0,80,0.00,,,0.00,160,Wunderground v.1.15,2013-10-23 09:52:00,
2013-10-23 11:58:00,72.6,65.7,29.97,NW,305,0.0,4.0,79,0.00,,,0.00,179,Wunderground v.1.15,2013-10-23 09:58:00,
2013-10-23 12:06:00,73.0,65.7,29.97,NW,305,1.0,1.0,78,0.00,,,0.00,209,Wunderground v.1.15,2013-10-23 10:06:00,
2013-10-23 12:12:00,73.4,66.1,29.97,NW,304,1.0,1.0,78,0.00,,,0.00,232,Wunderground v.1.15,2013-10-23 10:12:00,
2013-10-23 12:18:00,73.9,66.2,29.97,NW,305,1.0,1.0,77,0.00,,,0.00,248,Wunderground v.1.15,2013-10-23 10:18:00,
2013-10-23 12:26:00,74.7,66.6,29.96,NW,305,1.0,1.0,76,0.00,,,0.00,274,Wunderground v.1.15,2013-10-23 10:26:00,
2013-10-23 12:32:00,75.1,66.2,29.96,NW,304,0.0,0.0,74,0.00,,,0.00,255,Wunderground v.1.15,2013-10-23 10:32:00,
2013-10-23 12:38:00,75.6,66.3,29.96,NW,305,0.0,0.0,73,0.00,,,0.00,265,Wunderground v.1.15,2013-10-23 10:38:00,
2013-10-23 12:46:00,76.2,66.1,29.96,West,281,1.0,5.0,71,0.00,,,0.00,283,Wunderground v.1.15,2013-10-23 10:46:00,
2013-10-23 12:52:00,75.8,65.3,29.95,WSW,242,4.0,9.0,70,0.00,,,0.00,236,Wunderground v.1.15,2013-10-23 10:52:00,
2013-10-23 12:58:00,75.5,65.0,29.95,SW,236,7.0,9.0,70,0.00,,,0.00,267,Wunderground v.1.15,2013-10-23 10:58:00,
2013-10-23 13:06:00,75.5,64.6,29.95,WSW,240,7.0,8.0,69,0.00,,,0.00,264,Wunderground v.1.15,2013-10-23 11:06:00,
2013-10-23 13:12:00,75.5,63.8,29.95,WSW,244,9.0,10.0,67,0.00,,,0.00,250,Wunderground v.1.15,2013-10-23 11:12:00,
2013-10-23 13:18:00,75.4,63.2,29.94,WSW,250,10.0,12.0,66,0.00,,,0.00,230,Wunderground v.1.15,2013-10-23 11:18:00,
2013-10-23 13:24:00,75.4,62.4,29.94,WSW,245,11.0,13.0,64,0.00,,,0.00,213,Wunderground v.1.15,2013-10-23 11:24:00,
2013-10-23 13:30:00,75.3,61.4,29.94,WSW,241,12.0,12.0,62,0.00,,,0.00,225,Wunderground v.1.15,2013-10-23 11:30:00,
2013-10-23 13:36:00,75.5,61.1,29.94,WSW,250,11.0,14.0,61,0.00,,,0.00,241,Wunderground v.1.15,2013-10-23 11:36:00,
2013-10-23 13:42:00,75.6,61.2,29.94,West,266,12.0,12.0,61,0.00,,,0.00,237,Wunderground v.1.15,2013-10-23 11:42:00,
2013-10-23 13:48:00,75.8,60.9,29.94,WSW,248,11.0,14.0,60,0.00,,,0.00,236,Wunderground v.1.15,2013-10-23 11:48:00,
2013-10-23 13:56:00,75.8,60.9,29.94,WSW,238,12.0,12.0,60,0.00,,,0.00,260,Wunderground v.1.15,2013-10-23 11:56:00,
2013-10-23 14:02:00,75.8,60.9,29.94,WSW,244,12.0,12.0,60,0.00,,,0.00,267,Wunderground v.1.15,2013-10-23 12:02:00,
2013-10-23 14:08:00,75.9,61.0,29.94,WSW,248,13.0,16.0,60,0.00,,,0.00,271,Wunderground v.1.15,2013-10-23 12:08:00,
2013-10-23 14:16:00,75.9,61.5,29.94,WSW,246,13.0,19.0,61,0.00,,,0.00,265,Wunderground v.1.15,2013-10-23 12:16:00,
2013-10-23 14:22:00,75.8,60.9,29.94,WSW,250,15.0,19.0,60,0.00,,,0.00,257,Wunderground v.1.15,2013-10-23 12:22:00,
2013-10-23 14:28:00,75.8,61.4,29.94,WSW,238,15.0,19.0,61,0.00,,,0.00,271,Wunderground v.1.15,2013-10-23 12:28:00,
2013-10-23 14:34:00,75.8,60.9,29.94,West,261,15.0,20.0,60,0.00,,,0.00,348,Wunderground v.1.15,2013-10-23 12:34:00,
2013-10-23 14:40:00,76.0,61.6,29.94,SW,235,14.0,14.0,61,0.00,,,0.00,364,Wunderground v.1.15,2013-10-23 12:40:00,
2013-10-23 14:46:00,76.3,61.4,29.94,WSW,252,13.0,15.0,60,0.00,,,0.00,318,Wunderground v.1.15,2013-10-23 12:46:00,
2013-10-23 14:52:00,76.2,61.3,29.94,WSW,257,13.0,20.0,60,0.00,,,0.00,283,Wunderground v.1.15,2013-10-23 12:52:00,
2013-10-23 14:58:00,76.1,61.2,29.94,WSW,249,14.0,20.0,60,0.00,,,0.00,236,Wunderground v.1.15,2013-10-23 12:58:00,
2013-10-23 15:04:00,75.8,60.9,29.94,WSW,243,14.0,17.0,60,0.00,,,0.00,214,Wunderground v.1.15,2013-10-23 13:04:00,
2013-10-23 15:10:00,75.6,60.7,29.94,WSW,256,14.0,14.0,60,0.00,,,0.00,241,Wunderground v.1.15,2013-10-23 13:10:00,
2013-10-23 15:16:00,75.7,61.3,29.94,WSW,251,14.0,14.0,61,0.00,,,0.00,253,Wunderground v.1.15,2013-10-23 13:16:00,
2013-10-23 15:22:00,75.8,60.9,29.94,WSW,246,15.0,15.0,60,0.00,,,0.00,427,Wunderground v.1.15,2013-10-23 13:22:00,
2013-10-23 15:28:00,76.5,61.1,29.94,SW,234,14.0,15.0,59,0.00,,,0.00,341,Wunderground v.1.15,2013-10-23 13:28:00,
2013-10-23 15:34:00,77.1,61.2,29.94,West,260,11.0,15.0,58,0.00,,,0.00,554,Wunderground v.1.15,2013-10-23 13:34:00,
2013-10-23 15:40:00,77.5,61.6,29.94,SW,233,11.0,11.0,58,0.00,,,0.00,408,Wunderground v.1.15,2013-10-23 13:40:00,
2013-10-23 15:46:00,77.3,60.9,29.94,WSW,242,10.0,11.0,57,0.00,,,0.00,172,Wunderground v.1.15,2013-10-23 13:46:00,
2013-10-23 15:52:00,76.9,60.5,29.94,WSW,250,11.0,12.0,57,0.00,,,0.00,269,Wunderground v.1.15,2013-10-23 13:52:00,
2013-10-23 15:58:00,76.7,60.3,29.95,WSW,245,11.0,12.0,57,0.00,,,0.00,223,Wunderground v.1.15,2013-10-23 13:58:00,
2013-10-23 16:06:00,76.5,59.6,29.95,WSW,242,11.0,11.0,56,0.00,,,0.00,200,Wunderground v.1.15,2013-10-23 14:06:00,
2013-10-23 16:12:00,76.4,59.5,29.94,WSW,248,10.0,13.0,56,0.00,,,0.00,225,Wunderground v.1.15,2013-10-23 14:12:00,
2013-10-23 16:18:00,76.4,60.0,29.95,SW,227,10.0,13.0,57,0.00,,,0.00,353,Wunderground v.1.15,2013-10-23 14:18:00,
2013-10-23 16:26:00,77.1,59.7,29.95,SW,234,9.0,10.0,55,0.00,,,0.00,251,Wunderground v.1.15,2013-10-23 14:26:00,
2013-10-23 16:32:00,77.0,59.1,29.95,WSW,242,10.0,10.0,54,0.00,,,0.00,207,Wunderground v.1.15,2013-10-23 14:32:00,
2013-10-23 16:38:00,76.8,58.4,29.95,WSW,238,11.0,14.0,53,0.00,,,0.00,223,Wunderground v.1.15,2013-10-23 14:38:00,
2013-10-23 16:46:00,76.7,58.8,29.95,WSW,248,11.0,12.0,54,0.00,,,0.00,255,Wunderground v.1.15,2013-10-23 14:46:00,
2013-10-23 16:52:00,76.8,58.9,29.95,WSW,240,11.0,11.0,54,0.00,,,0.00,304,Wunderground v.1.15,2013-10-23 14:52:00,
2013-10-23 16:58:00,77.3,58.8,29.95,SSW,202,9.0,12.0,53,0.00,,,0.00,306,Wunderground v.1.15,2013-10-23 14:58:00,
2013-10-23 17:06:00,77.2,58.7,29.95,WSW,245,10.0,12.0,53,0.00,,,0.00,213,Wunderground v.1.15,2013-10-23 15:06:00,
2013-10-23 17:12:00,76.9,57.9,29.94,WSW,247,9.0,10.0,52,0.00,,,0.00,174,Wunderground v.1.15,2013-10-23 15:12:00,
2013-10-23 17:18:00,76.7,57.7,29.94,WSW,242,10.0,13.0,52,0.00,,,0.00,163,Wunderground v.1.15,2013-10-23 15:18:00,
2013-10-23 17:26:00,76.8,56.2,29.95,West,261,9.0,10.0,49,0.00,,,0.00,127,Wunderground v.1.15,2013-10-23 15:26:00,
2013-10-23 17:32:00,76.7,55.5,29.95,WSW,254,6.0,6.0,48,0.00,,,0.00,116,Wunderground v.1.15,2013-10-23 15:32:00,
2013-10-23 17:38:00,76.6,57.1,29.95,WSW,257,5.0,7.0,51,0.00,,,0.00,102,Wunderground v.1.15,2013-10-23 15:38:00,
2013-10-23 17:46:00,76.1,58.8,29.95,West,273,7.0,7.0,55,0.00,,,0.00,72,Wunderground v.1.15,2013-10-23 15:46:00,
2013-10-23 17:52:00,75.7,59.4,29.95,WSW,254,7.0,12.0,57,0.00,,,0.00,76,Wunderground v.1.15,2013-10-23 15:52:00,
2013-10-23 17:58:00,75.4,60.5,29.95,WSW,242,9.0,12.0,60,0.00,,,0.00,139,Wunderground v.1.15,2013-10-23 15:58:00,
2013-10-23 18:06:00,75.5,60.6,29.95,WSW,238,8.0,11.0,60,0.00,,,0.00,132,Wunderground v.1.15,2013-10-23 16:06:00,
2013-10-23 18:12:00,75.9,58.6,29.95,WSW,250,7.0,8.0,55,0.00,,,0.00,146,Wunderground v.1.15,2013-10-23 16:12:00,
2013-10-23 18:18:00,76.2,57.8,29.95,WSW,248,5.0,8.0,53,0.00,,,0.00,109,Wunderground v.1.15,2013-10-23 16:18:00,
2013-10-23 18:26:00,76.4,58.0,29.95,WSW,245,5.0,5.0,53,0.00,,,0.00,97,Wunderground v.1.15,2013-10-23 16:26:00,
2013-10-23 18:32:00,76.0,60.6,29.95,WSW,239,5.0,8.0,59,0.00,,,0.00,70,Wunderground v.1.15,2013-10-23 16:32:00,
2013-10-23 18:38:00,75.3,60.5,29.95,SW,232,5.0,8.0,60,0.00,,,0.00,40,Wunderground v.1.15,2013-10-23 16:38:00,
2013-10-23 18:46:00,74.6,60.3,29.95,SW,229,5.0,6.0,61,0.00,,,0.00,21,Wunderground v.1.15,2013-10-23 16:46:00,
2013-10-23 18:52:00,74.0,60.6,29.95,WSW,248,6.0,6.0,63,0.00,,,0.00,11,Wunderground v.1.15,2013-10-23 16:52:00,
2013-10-23 18:58:00,73.6,60.7,29.96,WSW,237,6.0,10.0,64,0.00,,,0.00,0,Wunderground v.1.15,2013-10-23 16:58:00,
2013-10-23 19:06:00,73.0,60.5,29.96,SW,236,6.0,6.0,65,0.00,,,0.00,0,Wunderground v.1.15,2013-10-23 17:06:00,
2013-10-23 19:12:00,72.6,60.6,29.97,WSW,244,6.0,8.0,66,0.00,,,0.00,0,Wunderground v.1.15,2013-10-23 17:12:00,
2013-10-23 19:18:00,72.3,60.7,29.97,SW,235,7.0,8.0,67,0.00,,,0.00,0,Wunderground v.1.15,2013-10-23 17:18:00,
2013-10-23 19:26:00,72.0,60.9,29.98,WSW,238,8.0,10.0,68,0.00,,,0.00,0,Wunderground v.1.15,2013-10-23 17:26:00,
2013-10-23 19:32:00,71.7,61.0,29.98,WSW,246,8.0,10.0,69,0.00,,,0.00,0,Wunderground v.1.15,2013-10-23 17:32:00,
2013-10-23 19:38:00,71.6,61.3,29.98,WSW,256,8.0,10.0,70,0.00,,,0.00,0,Wunderground v.1.15,2013-10-23 17:38:00,
2013-10-23 19:46:00,71.5,61.2,29.98,WSW,251,9.0,9.0,70,0.00,,,0.00,0,Wunderground v.1.15,2013-10-23 17:46:00,
2013-10-23 19:52:00,71.4,61.5,29.99,WSW,244,8.0,8.0,71,0.00,,,0.00,0,Wunderground v.1.15,2013-10-23 17:52:00,
2013-10-23 19:58:00,71.1,61.2,29.99,WSW,249,7.0,8.0,71,0.00,,,0.00,0,Wunderground v.1.15,2013-10-23 17:58:00,
2013-10-23 20:04:00,70.9,61.4,30.00,WSW,248,7.0,9.0,72,0.00,,,0.00,0,Wunderground v.1.15,2013-10-23 18:04:00,
2013-10-23 20:10:00,70.6,61.5,30.00,WSW,250,7.0,11.0,73,0.00,,,0.00,0,Wunderground v.1.15,2013-10-23 18:10:00,
2013-10-23 20:16:00,70.5,61.4,30.00,WSW,244,8.0,11.0,73,0.00,,,0.00,0,Wunderground v.1.15,2013-10-23 18:16:00,
2013-10-23 20:22:00,70.3,61.6,30.00,WSW,246,8.0,10.0,74,0.00,,,0.00,0,Wunderground v.1.15,2013-10-23 18:22:00,
2013-10-23 20:28:00,70.1,61.4,30.00,WSW,240,7.0,10.0,74,0.00,,,0.00,0,Wunderground v.1.15,2013-10-23 18:28:00,
2013-10-23 20:34:00,69.9,61.6,30.00,WSW,253,7.0,9.0,75,0.00,,,0.00,0,Wunderground v.1.15,2013-10-23 18:34:00,
2013-10-23 20:40:00,69.8,61.5,30.00,WSW,249,7.0,7.0,75,0.00,,,0.00,0,Wunderground v.1.15,2013-10-23 18:40:00,
2013-10-23 20:46:00,69.6,61.3,30.00,WSW,248,7.0,8.0,75,0.00,,,0.00,0,Wunderground v.1.15,2013-10-23 18:46:00,
2013-10-23 20:52:00,69.5,61.2,30.00,WSW,250,7.0,7.0,75,0.00,,,0.00,0,Wunderground v.1.15,2013-10-23 18:52:00,
2013-10-23 20:58:00,69.5,61.2,30.00,WSW,256,5.0,7.0,75,0.00,,,0.00,0,Wunderground v.1.15,2013-10-23 18:58:00,
2013-10-23 21:06:00,69.4,61.1,30.00,WSW,256,3.0,5.0,75,0.00,,,0.00,0,Wunderground v.1.15,2013-10-23 19:06:00,
2013-10-23 21:12:00,69.3,61.0,30.01,WSW,256,2.0,2.0,75,0.00,,,0.00,0,Wunderground v.1.15,2013-10-23 19:12:00,
2013-10-23 21:18:00,69.3,61.0,30.01,WSW,256,2.0,3.0,75,0.00,,,0.00,0,Wunderground v.1.15,2013-10-23 19:18:00,
2013-10-23 21:26:00,69.3,61.0,30.00,WSW,256,3.0,4.0,75,0.00,,,0.00,0,Wunderground v.1.15,2013-10-23 19:26:00,
2013-10-23 21:32:00,69.1,60.8,30.01,WSW,256,4.0,5.0,75,0.00,,,0.00,0,Wunderground v.1.15,2013-10-23 19:32:00,
2013-10-23 21:38:00,68.7,60.8,30.01,WSW,256,5.0,6.0,76,0.00,,,0.00,0,Wunderground v.1.15,2013-10-23 19:38:00,
2013-10-23 21:46:00,68.4,60.5,30.02,WSW,256,3.0,5.0,76,0.00,,,0.00,0,Wunderground v.1.15,2013-10-23 19:46:00,
2013-10-23 21:52:00,68.3,60.4,30.02,WSW,256,0.0,1.0,76,0.00,,,0.00,0,Wunderground v.1.15,2013-10-23 19:52:00,
2013-10-23 21:58:00,68.1,60.2,30.02,WSW,256,0.0,1.0,76,0.00,,,0.00,0,Wunderground v.1.15,2013-10-23 19:58:00,
2013-10-23 22:06:00,67.7,59.9,30.02,WSW,256,0.0,0.0,76,0.00,,,0.00,0,Wunderground v.1.15,2013-10-23 20:06:00,
2013-10-23 22:12:00,67.8,60.0,30.02,WSW,256,0.0,0.0,76,0.00,,,0.00,0,Wunderground v.1.15,2013-10-23 20:12:00,
2013-10-23 22:18:00,67.9,60.1,30.02,WSW,256,0.0,0.0,76,0.00,,,0.00,0,Wunderground v.1.15,2013-10-23 20:18:00,
2013-10-23 22:26:00,67.9,60.1,30.02,WSW,257,0.0,4.0,76,0.00,,,0.00,0,Wunderground v.1.15,2013-10-23 20:26:00,
2013-10-23 22:32:00,67.8,60.0,30.02,WSW,256,3.0,4.0,76,0.00,,,0.00,0,Wunderground v.1.15,2013-10-23 20:32:00,
2013-10-23 22:38:00,67.7,59.9,30.02,WSW,256,5.0,5.0,76,0.00,,,0.00,0,Wunderground v.1.15,2013-10-23 20:38:00,
2013-10-23 22:46:00,67.9,59.7,30.02,WSW,256,5.0,6.0,75,0.00,,,0.00,0,Wunderground v.1.15,2013-10-23 20:46:00,
2013-10-23 22:52:00,67.8,59.6,30.03,WSW,256,4.0,5.0,75,0.00,,,0.00,0,Wunderground v.1.15,2013-10-23 20:52:00,
2013-10-23 22:58:00,67.7,59.5,30.03,WSW,256,4.0,6.0,75,0.00,,,0.00,0,Wunderground v.1.15,2013-10-23 20:58:00,
2013-10-23 23:06:00,67.7,59.9,30.03,WSW,248,6.0,8.0,76,0.00,,,0.00,0,Wunderground v.1.15,2013-10-23 21:06:00,
2013-10-23 23:12:00,67.4,59.9,30.03,WSW,248,7.0,7.0,77,0.00,,,0.00,0,Wunderground v.1.15,2013-10-23 21:12:00,
2013-10-23 23:18:00,67.4,59.6,30.04,WSW,248,4.0,7.0,76,0.00,,,0.00,0,Wunderground v.1.15,2013-10-23 21:18:00,
2013-10-23 23:26:00,67.2,59.0,30.03,WSW,248,3.0,4.0,75,0.00,,,0.00,0,Wunderground v.1.15,2013-10-23 21:26:00,
2013-10-23 23:32:00,67.1,58.5,30.03,WSW,248,1.0,2.0,74,0.00,,,0.00,0,Wunderground v.1.15,2013-10-23 21:32:00,
2013-10-23 23:38:00,67.2,58.6,30.03,WSW,249,0.0,4.0,74,0.00,,,0.00,0,Wunderground v.1.15,2013-10-23 21:38:00,
2013-10-23 23:46:00,67.7,58.3,30.03,WSW,249,3.0,5.0,72,0.00,,,0.00,0,Wunderground v.1.15,2013-10-23 21:46:00,
2013-10-23 23:52:00,67.8,58.4,30.04,WSW,249,2.0,3.0,72,0.00,,,0.00,0,Wunderground v.1.15,2013-10-23 21:52:00,
2013-10-23 23:58:00,67.9,58.5,30.04,WSW,249,1.0,3.0,72,0.00,,,0.00,0,Wunderground v.1.15,2013-10-23 21:58:00,